EQUISat
1 43552U 98067PA 19220.08012903 .00009978 00000-0 11549-3 0 9992
2 43552 51.6388 87.8559 0005399 340.5354 19.5433 15.62529843 60897
UiTMSat 1
1 43589U 98067PD 19220.07847333 .00011636 00000-0 13262-3 0 9992
2 43589 51.6361 88.5311 0004789 350.2281 9.8620 15.62737900 56622
Maya 1
1 43590U 98067PE 19220.00901942 .00010886 00000-0 12439-3 0 9995
2 43590 51.6362 88.8222 0004937 350.3258 9.7640 15.62753255 56542
Bhutan 1
1 43591U 98067PF 19219.67811574 .00011672 00000-0 13267-3 0 9992
2 43591 51.6372 90.3877 0005040 349.9093 10.1799 15.62803786 56495
SiriusSat 1
1 43595U 98067PG 19219.88285118 .00010460 00000-0 12356-3 0 9990
2 43595 051.6364 090.9797 0002592 304.1227 055.9521 15.61940459055686
SiriusSat 2
1 43596U 98067PH 19219.85433747 .00010734 00000-0 12743-3 0 9995
2 43596 051.6374 091.5788 0003129 304.2310 055.8387 15.61776927055671
Tanusha-3
1 43597U 98067PJ 19220.75812832 .00013076 00000-0 14354-3 0 9995
2 43597 51.6358 84.7957 0002719 326.1092 33.9729 15.63582333 55844
SurfSat
1 43614U 18070B 19219.90585645 .00002382 00000-0 64284-4 0 9991
2 43614 093.0249 024.3788 0018591 109.2494 251.0773 15.37683824050122
CP-7 DAVE
1 43615U 18070C 19220.43494059 .00001904 00000-0 51554-4 0 9995
2 43615 93.0248 24.5974 0018630 106.9226 253.4072 15.37597702 50208
ELFIN-B
1 43616U 18070D 19219.90105513 .00003492 00000-0 92287-4 0 9992
2 43616 093.0216 024.2871 0019437 111.9613 248.3709 15.38285611050135
ELFIN-A
1 43617U 18070E 19220.54395205 .00002837 00000-0 74928-4 0 9998
2 43617 93.0271 24.8070 0018666 107.0792 253.2508 15.38333686 50230
STARS-Me Mother
1 43640U 98067PQ 19219.88004727 .00006598 00000-0 89199-4 0 9993
2 43640 051.6376 095.4915 0004560 286.9065 073.1427 15.59091244047556
CubeBel 1
1 43666U 18083E 19220.85816351 .00000940 00000-0 50005-4 0 9993
2 43666 97.5178 244.9826 0015714 16.4313 108.3849 15.17653006 43043
Changshagaoxin
1 43669U 18083H 19220.77806401 .00000571 00000-0 32420-4 0 9993
2 43669 97.5044 244.0558 0011188 12.7072 347.4441 15.16839150 42973
Ten-Koh
1 43677U 18084G 19220.52034233 .00000129 00000-0 19116-4 0 9998
2 43677 97.8563 333.9331 0017475 112.7193 247.5874 14.90181279 42184
PO-101
1 43678U 18084H 19218.44385147 .00000038 00000-0 94890-5 0 9992
2 43678 97.8572 332.4939 0010699 135.6882 224.5162 14.91564002 41918
IRVINE 01
1 43693U 18088D 19219.92986433 .00001696 00000-0 73261-4 0 9991
2 43693 085.0352 284.9394 0018773 016.1816 344.0021 15.21523925041002
QO-100
1 43700U 18090A 19220.65723966 .00000126 00000-0 00000 0 0 9998
2 43700 0.0125 99.9871 0001645 44.3421 74.9129 1.00272450 2804
Reaktor Hello World
1 43743U 18096AA 19220.89662574 .00001036 00000-0 42130-4 0 9990
2 43743 97.4572 290.8344 0018906 151.2544 319.9111 15.26685561 38543
MinXSS-2
1 43758U 18099A 19220.13854548 .00000486 00000-0 49106-4 0 9998
2 43758 97.7424 291.5903 0016461 154.5164 205.6872 14.95432098 36975
AO-95
1 43770U 18099N 19219.77474134 -.00000123 00000-0 -59590-5 0 9998
2 43770 97.7428 290.9987 0015103 161.4928 198.6845 14.94788500 36900
RANGE-B
1 43772U 18099Q 19220.16171769 .00000405 00000-0 42311-4 0 9996
2 43772 97.7483 291.5744 0015129 147.8670 212.3476 14.94901920 36953
RANGE-A
1 43773U 18099R 19220.43575291 -.00000074 00000-0 -15495-5 0 9993
2 43773 97.7375 291.5103 0014429 146.8779 213.3348 14.94819643 36997
MOVE-II
1 43780U 18099Y 19220.93657694 .00000117 00000-0 15885-4 0 9992
2 43780 97.7402 292.1964 0013877 157.1797 203.0041 14.95086308 37069
SNUSat 2
1 43782U 18099AA 19220.26234977 .00000112 00000-0 15453-4 0 9991
2 43782 97.7420 291.5766 0013700 147.6164 212.5900 14.95068767 36978
SnugLite
1 43784U 18099AC 19220.24966310 -.00000209 00000-0 -13756-4 0 9997
2 43784 97.7388 291.4826 0015786 155.8515 204.3449 14.95152975 36989
ITASat 1
1 43786U 18099AE 19220.78298765 -.00000260 00000-0 -18417-4 0 9996
2 43786 97.7440 292.1846 0015928 153.1581 207.0467 14.95155775 37063
EAGLET 1
1 43790U 18099AJ 19219.78345876 -.00000307 00000-0 -22463-4 0 9993
2 43790 97.7431 291.3121 0013912 160.6127 199.5626 14.95528072 36611
ESEO
1 43792U 18099AL 19219.78132602 -.00000391 00000-0 -30051-4 0 9991
2 43792 97.7411 291.2568 0013810 157.5625 202.6203 14.95516923 36675
CSIM
1 43793U 18099AM 19220.76487152 .00000342 00000-0 35858-4 0 9999
2 43793 97.7379 292.1268 0013986 151.6092 208.5894 14.95731266 36796
Astrocast 0.1
1 43798U 18099AS 19220.28058757 .00000538 00000-0 53381-4 0 9994
2 43798 97.7419 291.8477 0013625 139.6288 220.5947 14.95743933 36985
JO-97
1 43803U 18099AX 19220.96399216 .00000918 00000-0 88357-4 0 9997
2 43803 97.7400 292.2691 0015986 153.3460 206.8608 14.95296722 37084
Suomi 100
1 43804U 18099AY 19220.16051643 .00000365 00000-0 38308-4 0 9996
2 43804 97.7400 291.4745 0015952 155.4390 204.7594 14.95291436 36979
Al Farabi 2
1 43805U 18099AZ 19220.75617407 .00000587 00000-0 58297-4 0 9993
2 43805 97.7403 292.0819 0016131 153.6287 206.5758 14.95353056 37067
PWSat 2
1 43814U 18099BJ 19220.32068832 .00010054 00000-0 79782-3 0 9999
2 43814 97.7763 293.2119 0015115 153.3140 206.8901 15.00618952 36448
CHOMPTT
1 43855U 18104G 19220.57238541 .00000979 00000-0 40340-4 0 9998
2 43855 85.0355 22.7928 0019300 122.0702 238.2413 15.22435937 35765
ISAT
1 43879U 18111D 19220.82707168 .00000694 00000-0 66955-4 0 9990
2 43879 97.7142 128.0876 0012314 207.1309 152.9270 14.96011700 31580
UWE-4
1 43880U 18111E 19220.32238217 -.00000308 00000-0 -22153-4 0 9997
2 43880 97.7152 127.7021 0011343 210.7400 149.3159 14.96253615 31516
Sparrow
1 43881U 18111F 19220.78365841 -.00000210 00000-0 -13409-4 0 9998
2 43881 97.7158 128.1838 0011416 207.5050 152.5569 14.96302822 31583
Lume 1
1 43908U 18111AJ 19220.28001063 .00000722 00000-0 32136-4 0 9990
2 43908 97.2856 124.1462 0021846 168.4670 191.7073 15.24395827 34153
FO-98
1 43933U 19003B 19220.72495700 .00000474 00000-0 23899-4 0 9993
2 43933 97.2779 276.6346 0016549 265.8940 245.2903 15.21678146 30816
FO-99
1 43937U 19003F 19220.73702804 .00000936 00000-0 41721-4 0 9991
2 43937 97.2732 277.0795 0023021 251.2128 257.2083 15.23646519 30859
Delphini 1
1 44030U 98067PW 19219.86483122 .00008098 00000-0 11558-3 0 9995
2 44030 051.6383 099.8966 0004130 342.4181 017.6668 15.57254190029360
MYSat 1
1 44045U 18092F 19219.91543334 .00001896 00000-0 65889-4 0 9995
2 44045 051.6418 127.6519 0010719 265.8010 094.1746 15.35088185026952
AstroCast 0.2
1 44083U 19018F 19220.77928541 .00000324 00000-0 17525-4 0 9998
2 44083 97.4650 280.3527 0013868 183.1633 176.9517 15.21411539 19682
AISTechSat 3
1 44103U 19018AB 19220.76545973 .00000606 00000-0 29050-4 0 9993
2 44103 97.4534 280.3552 0012964 201.8441 296.6362 15.22677143 19690
AISat 1
1 44104U 19018AC 19220.20854158 .00000500 00000-0 18917-4 0 9994
2 44104 97.5060 282.2142 0057479 247.1160 112.4006 15.30517014 19737
NepaliSat-1
1 44329U 98067QE 19220.12533905 .00005538 00000-0 96352-4 0 9994
2 44329 51.6411 103.1457 0006557 270.5819 89.4419 15.52455021 8090
Raavana-1
1 44330U 98067QF 19219.86908766 .00005615 00000-0 97718-4 0 9999
2 44330 051.6409 104.4340 0006525 268.0847 091.9395 15.52413213008034
Uguisu
1 44331U 98067QG 19219.86668877 .00005714 00000-0 99046-4 0 9992
2 44331 051.6410 104.4185 0006569 270.9388 089.0850 15.52486558008041
Prox-1
1 44339U 19036A 19220.49730773 .00000235 00000-0 58547-5 0 9990
2 44339 24.0002 286.7639 0010871 318.2057 41.7617 14.52653670 6424
OBJECT H
1 44346U 19036H 19220.48770595 .00012618 00000-0 20139-3 0 9995
2 44346 28.5240 273.9189 0390081 212.6584 144.9310 14.96381823 6623
